Location: Saint-Restitut
(44.3351°N, 4.7915°E)
Time: 03:18:37
(UTC+00:00)

Feng Yun 1-1 Rocket - Pass Details

Date: 03 February 2023
Orbit: 830 x 933 km, 99.1° (Epoch: 27 March)

Event Time Altitude Azimuth Distance (km) Brightness Sun altitude
Rises 18:28:20 0° 150° (SSE) 3,459 7.1 -17.3°
Reaches altitude 10° 18:30:46 10° 145° (SE) 2,510 6.4 -17.8°
Maximum altitude 18:36:10 54° 70° (ENE) 1,030 4.3 -18.7°
Drops below altitude 10° 18:41:29 10° 354° (N) 2,470 6.6 -19.7°
Sets 18:43:52 0° 350° (N) 3,399 7.4 -20.1°
